星链-5811 (STARLINK-5811 )

导读

STARLINK-5811是美国太空探索技术公司(SpaceX)于2023年3月3日发射的星链(Starlink)低轨通信卫星,属于星链卫星互联网项目的组网卫星。它作为星链星座的组成部分,旨在为全球偏远地区、海洋及航空等场景提供低延迟高速宽带互联网接入服务,该星配备激光星间链路,支持卫星间直连通信,助力构建覆盖全球的高效低轨卫星网络。

Basic Information
目录编号:
55787
目录名称:
STARLINK-5811
国际标识:
2023-028AY
轨道中心:
EARTH
卫星名称:
星链-5811
卫星全名:
星链-5811 (STARLINK-5811 )
卫星状态:
在轨 (已飞行1289 天)
发射日期:
2023-03-03 UTC
国别 :
美国 (US)
星等 :
--
This satellite is enrolled in the Space Conjunction Data Service (SCDS) and the current flight risk assessment level is: No High Risk
Orbit Information
数据来源 国际轨道数据
星历时间: 2026-09-12T14:55:06+0800
8小时前
查看轨道信息
半长轴: 6950.165km
偏心率: 0.0002906
轨道倾角: 69.999°
近地点辐角 268.504°
升交点赤经 94.106°
平近点角 91.578°
近地点: 570.008km
远地点: 574.048km
周期: 96.106分钟
每日圈数: 14.983392
Detailed Information
固有亮度:
5
最大亮度:
2.5
卫星平台:
Starlink v1.5
覆盖范围:
全球
运营商:
太空探索技术公司
运营商所在国:
美国
制造商(研发单位):
太空探索技术公司
制造商所在国:
美国
使用方式:
暂无
Satellite Introduction
星链(Starlink)计划是由太空探索技术公司(SpaceX)提出的一个巨型低轨卫星互联网星座项目,计划在2019年至2024年间在太空搭建由约1.2万颗卫星组成的“星链”网络,其中1584颗将部署在地球上空550千米处的近地轨道,并从2020年开始工作。该卫星仍在工作。
2D Orbit Map
3D Orbit Map
Orbit Altitude Analysis Chart
Orbit Inclination Analysis Chart
Orbit Comprehensive Analysis Chart
View Comprehensive Chart
Conjunction Data List
Event ID Objects TCA Miss Dist (km) Collision Risk Probability Collision Risk Index (CRI) Action
CDM_260914-171000-965405-578721
2026-09-14T
17:10:19+0000
2.621 km
极远距离
1.489837E-6 低风险 0.38
CDM_260914-224004-914805-578721
2026-09-14T
22:40:06+0000
2.601 km
极远距离
1.16885E-6 低风险 0.36
CDM_260914-215204-914805-578721
2026-09-14T
21:52:01+0000
2.636 km
极远距离
1.145498E-6 低风险 0.36
Miss Distance Evolution Trend with All Objects
Collision Probability Evolution Trend with All Objects